Location: Unspecified
(0.0000°N, 0.0000°E)
Time: 05:52:48
(UTC+00:00)

Vanguard 1 Rocket - Pass Details

Date: 19 November 2019
Orbit: 653 x 4224 km, 34.3° (Epoch: 08 July)

Event Time Altitude Azimuth Distance (km) Brightness Sun altitude
Rises 21:51:52 0° 229° (SW) 7,410 12.6 -56.0°
Reaches altitude 10° 21:57:43 10° 226° (SW) 5,853 11.9 -57.2°
Enters shadow 22:07:14 36° 214° (SW) 3,150 10.1 -59.0°
